Casper, WY

4:49 PM MST on January 23, 2017 (GMT -0700)
Natrona County International

Weather History for KCPR - October, 2012

Change the Weather History Date:

Wednesday, October 31, 2012

  Actual Average Record
Temperature  
Mean Temperature 51 °F 40 °F  
Max Temperature 67 °F 53 °F 70 °F (2008)
Min Temperature 35 °F 27 °F 2 °F (1972)
Degree Days  
Heating Degree Days 14 25  
Month to date heating degree days 622 615  
Since 1 July heating degree days 771 899  
Cooling Degree Days 0 0  
Month to date cooling degree days 0 0  
Year to date cooling degree days 697 422  
Moisture  
Dew Point 27 °F    
Average Humidity 45    
Maximum Humidity 70    
Minimum Humidity 20    
Precipitation  
Precipitation 0.00 in 0.03 in 0.31 in (2000)
Month to date precipitation 0.56 1.11  
Year to date precipitation 7.00 11.27  
Snow  
Snow 0.00 in 0.30 in - ()
Month to date snowfall 5.2 7.4  
Since 1 July snowfall 5.2 9.2  
Since 1 September snowfall 5.2 9.2  
Snow Depth 0.00 in    
Sea Level Pressure  
Sea Level Pressure 30.06 in    
Wind  
Wind Speed 11 mph (SW)    
Max Wind Speed 17 mph    
Max Gust Speed -    
Visibility 10 miles    
Events      
T = Trace of Precipitation, MM = Missing Value Source: NWS Daily Summary

Daily Weather History Graph

Daily Weather History Graph

Search for Another Location

Airport or City:

Trip Planner

Search our weather history database for the weather conditions in past years. The results will help you decide how hot, cold, wet, or windy it might be!

Date:

Astronomy

Oct. 31, 2012 Rise Set
Actual Time 7:39 AM MDT 5:58 PM MDT
Civil Twilight 7:10 AM MDT 6:28 PM MDT
Nautical Twilight 6:36 AM MDT 7:01 PM MDT
Astronomical Twilight 6:03 AM MDT 7:34 PM MDT
Moon 7:09 PM MDT (10/31) 9:25 AM MDT (10/31)
Length of Visible Light 11h 17m
Length of Day
10h 19m
Full, 97% of the Moon is Illuminated
Oct 31
Full
Nov 6
Last Quarter
Nov 13
New
Nov 20
First Quarter
Nov 28
Full

Hourly Weather History & Observations

Time (MDT) Temp. Windchill Dew Point Humidity Pressure Visibility Wind Dir Wind Speed Gust Speed Precip Events Conditions
12:53 AM 42.1 °F 36.6 °F 28.0 °F 58% 30.04 in 10.0 mi West 9.2 mph - N/A   Clear
1:53 AM 39.0 °F 33.4 °F 28.0 °F 65% 30.04 in 10.0 mi WSW 8.1 mph - N/A   Clear
2:53 AM 36.0 °F 29.6 °F 27.0 °F 70% 30.06 in 10.0 mi WSW 8.1 mph - N/A   Clear
3:53 AM 39.0 °F 32.3 °F 28.0 °F 65% 30.04 in 10.0 mi West 10.4 mph - N/A   Clear
4:53 AM 39.0 °F 34.0 °F 27.0 °F 62% 30.04 in 10.0 mi WSW 6.9 mph - N/A   Clear
5:53 AM 37.9 °F 32.1 °F 27.0 °F 65% 30.09 in 10.0 mi WSW 8.1 mph - N/A   Clear
6:53 AM 41.0 °F 35.8 °F 27.0 °F 57% 30.12 in 10.0 mi WSW 8.1 mph - N/A   Clear
7:53 AM 36.0 °F 29.0 °F 27.0 °F 70% 30.16 in 10.0 mi WSW 9.2 mph - N/A   Clear
8:53 AM 48.0 °F - 27.0 °F 44% 30.13 in 10.0 mi SW 15.0 mph - N/A   Clear
9:53 AM 52.0 °F - 27.0 °F 38% 30.11 in 10.0 mi SW 16.1 mph - N/A   Clear
10:53 AM 57.0 °F - 27.0 °F 32% 30.11 in 10.0 mi SSW 16.1 mph - N/A   Clear
11:53 AM 57.9 °F - 27.0 °F 31% 30.09 in 10.0 mi SSW 17.3 mph - N/A   Clear
12:53 PM 63.0 °F - 27.0 °F 26% 30.05 in 10.0 mi SSW 16.1 mph - N/A   Clear
1:53 PM 64.9 °F - 27.0 °F 24% 30.03 in 10.0 mi SSW 15.0 mph - N/A   Clear
2:53 PM 66.0 °F - 26.1 °F 22% 30.02 in 10.0 mi SW 17.3 mph - N/A   Clear
3:53 PM 66.0 °F - 25.0 °F 21% 30.00 in 10.0 mi SW 16.1 mph - N/A   Clear
4:53 PM 64.9 °F - 26.1 °F 23% 30.00 in 10.0 mi SSW 13.8 mph - N/A   Clear
5:53 PM 57.9 °F - 27.0 °F 31% 30.03 in 10.0 mi SW 4.6 mph - N/A   Clear
6:53 PM 50.0 °F - 26.1 °F 39% 30.06 in 10.0 mi SW 10.4 mph - N/A   Clear
7:53 PM 46.9 °F - 26.1 °F 44% 30.09 in 10.0 mi West 4.6 mph - N/A   Clear
8:53 PM 45.0 °F 41.8 °F 26.1 °F 48% 30.05 in 10.0 mi SW 5.8 mph - N/A   Clear
9:53 PM 42.1 °F 37.1 °F 27.0 °F 55% 30.04 in 10.0 mi West 8.1 mph - N/A   Clear
10:53 PM 41.0 °F 36.4 °F 27.0 °F 57% 30.01 in 10.0 mi West 6.9 mph - N/A   Clear
11:53 PM 43.0 °F 40.3 °F 26.1 °F 51% 30.00 in 10.0 mi WSW 4.6 mph - N/A   Clear